CST,Max TemperatureF,Mean TemperatureF,Min TemperatureF,Max Dew PointF,MeanDew PointF,Min DewpointF,Max Humidity, Mean Humidity, Min Humidity, Max Sea Level PressureIn, Mean Sea Level PressureIn, Min Sea Level PressureIn, Max VisibilityMiles, Mean VisibilityMiles, Min VisibilityMiles, Max Wind SpeedMPH, Mean Wind SpeedMPH, Max Gust SpeedMPH,PrecipitationIn, CloudCover, Events, WindDirDegrees
2012-12-1,70,50,30,33,31,27,89,58,26,29.93,29.84,29.76,10,10,8,22,7,26,0.00,0,,286
2012-12-2,67,47,27,35,30,25,85,55,24,30.02,29.86,29.62,10,10,2,25,8,35,0.00,0,,184
2012-12-3,57,39,20,37,24,10,92,57,22,30.17,29.86,29.57,10,10,10,33,12,44,0.00,0,,325
2012-12-4,57,38,19,20,15,11,67,44,20,30.35,30.26,30.16,10,10,9,20,4,46,0.00,0,,281
2012-12-5,57,43,28,25,21,15,57,43,28,30.19,29.97,29.78,10,10,10,26,11,31,0.00,1,,182
2012-12-6,51,38,25,32,21,14,75,52,28,30.04,29.96,29.78,10,10,10,29,10,38,0.00,4,,357
2012-12-7,45,29,13,24,19,11,91,64,37,30.07,29.97,29.88,10,10,7,24,8,31,0.00,1,,298
2012-12-8,40,24,8,27,20,5,92,73,54,30.04,29.89,29.73,10,10,10,23,9,29,0.00,5,,180
2012-12-9,34,22,10,25,6,-1,72,66,53,30.36,30.11,29.83,10,10,9,39,26,48,T,4,Rain-Snow,326
2012-12-10,37,17,-4,18,4,-8,87,58,28,30.29,30.06,29.91,10,10,10,18,8,23,0.00,1,,292
2012-12-11,43,28,12,17,12,4,84,56,27,30.05,29.98,29.88,10,10,10,17,7,21,0.00,1,,247
2012-12-12,50,34,17,13,11,9,67,44,21,29.92,29.88,29.81,10,10,10,22,8,29,0.00,0,,188
2012-12-13,53,35,16,22,15,9,74,52,30,30.10,30.01,29.89,10,10,9,13,2,16,0.00,0,,248
2012-12-14,42,26,9,36,23,7,100,71,41,30.01,29.73,29.50,10,8,2,16,5,25,0.03,4,Rain,23
2012-12-15,42,37,32,37,31,21,100,85,64,29.78,29.60,29.45,10,8,2,21,14,26,T,5,Rain,338
2012-12-16,42,33,24,26,21,19,92,66,39,29.83,29.78,29.72,10,10,7,12,5,17,T,4,Snow,267
2012-12-17,45,32,18,26,22,17,91,66,40,29.76,29.66,29.48,10,10,10,15,6,26,0.00,0,,244
2012-12-18,49,38,26,26,20,16,70,50,29,29.83,29.69,29.47,10,10,10,36,12,48,0.00,3,,313
2012-12-19,34,28,21,27,22,16,96,73,49,30.07,29.88,29.76,10,3,0,35,20,44,0.04,8,Fog-Snow,14
2012-12-20,27,18,8,15,10,4,84,67,50,30.30,30.21,30.07,10,10,9,25,12,32,0.00,0,,313
2012-12-21,40,21,2,23,12,0,96,72,48,30.32,30.23,30.12,10,10,10,12,2,20,0.00,0,,189
2012-12-22,44,27,10,24,16,10,92,60,28,30.09,30.05,30.00,10,10,8,21,7,25,0.00,0,,338
2012-12-23,31,21,11,21,12,6,100,82,63,30.14,30.02,29.94,10,4,0,18,6,24,0.00,4,Fog,337
2012-12-24,16,12,8,7,5,3,83,75,67,30.34,30.19,30.09,10,9,2,20,11,22,T,5,Snow,16
2012-12-25,12,9,5,4,1,-7,87,79,67,30.57,30.47,30.34,10,10,7,22,13,26,T,5,,357
2012-12-26,17,6,-6,7,1,-8,87,72,56,30.43,30.25,30.09,10,10,10,14,6,21,0.00,2,,157
2012-12-27,18,12,5,14,11,2,92,86,80,30.08,29.93,29.83,10,4,1,17,7,24,0.00,7,Snow,118
2012-12-28,14,6,-3,7,4,-5,95,86,76,30.21,30.09,29.93,10,7,2,20,9,24,T,4,Rain-Snow,324
2012-12-29,31,21,10,20,12,8,84,71,58,30.31,30.24,30.13,10,10,10,17,7,22,0.00,0,,287
2012-12-30,32,22,11,18,15,11,92,73,53,30.20,30.09,30.00,10,10,10,23,10,29,0.00,0,,271
2012-12-31,22,19,16,20,17,15,100,92,84,30.27,30.18,30.07,10,8,2,22,7,28,0.00,7,,16